Regional Weather Roundup
Issued by NWS Grand Forks, ND

Home | Current Version | Previous Version | Text Only | Print | Product List | Glossary Off
Versions: 1 2 3 4 5 6 7 8 9 10 11 12 13 14 15 16 17 18 19 20 21 22 23 24 25 26 27 28 29 30 31 32 33 34 35 36 37 38 39 40 41 42 43 44 45 46 47 48 49 50

000
ASUS43 KFGF 200931
RWRFGF
PRAIRIE TO PINES  WEATHER ROUNDUP
NATIONAL WEATHER SERVICE EASTERN NORTH DAKOTA/GRAND FORKS ND
300 AM CST SAT DEC 20 2014

 **SATELLITE DATA USED TO AUGMENT SKY COVER AT AUTOMATED STATIONS**
 *****  WEATHER ACROSS EASTERN NORTH DAKOTA  *****

CITY           SKY/WX    TMP DP  RH WIND       PRES   REMARKS
GRAND FORKS    CLOUDY    29  27  92 S7        30.01R WCI  22
GRAND FRKS AFB CLOUDY    28  28 100 SW3       30.01R
GRAND FRKS NWS   N/A     28 N/A N/A SW7         N/A  WCI  21
DEVILS LAKE    CLOUDY    25  18  74 CALM      29.96S
FARGO          CLOUDY    31  28  89 S9        30.03R WCI  23
WAHPETON ARPT  CLOUDY    30  28  93 S7        30.05S WCI  23
$$

 ***** WEATHER ACROSS CENTRAL AND WESTERN NORTH DAKOTA  *****

CITY           SKY/WX    TMP DP  RH WIND       PRES   REMARKS
BISMARCK       FOG       15  13  91 E5        29.94F VSB 3/4 WCI   8
MINOT          FOG       21  19  92 S6        29.92R VSB 1/4 WCI  13
JAMESTOWN      FOG       22  20  92 CALM      29.97S VSB 1/4
MINOT AFB      FRZ DRZL  23  23 100 S3        29.92S VSB 1/2
GARRISON         N/A     20  17  88 SE5       29.90S WCI  13
WILLISTON      MOCLDY    10   7  87 CALM      29.87S
DICKINSON      PTCLDY    25  18  74 S3        29.85S
HETTINGER      MOCLDY    20  15  81 SE6       29.89S WCI  12
$$

 *****  OTHER AIRPORT OBSERVATIONS IN OUR AREA  *****

CITY           SKY/WX    TMP DP  RH WIND       PRES   REMARKS
WALHALLA         N/A     27  27 100 CALM      30.00S
GRAFTON AIRPOR NOT AVBL
VALLEY CITY AR FOG       25  25 100 SW6       29.99S VSB 1/4 WCI  18
CANDO          CLOUDY    23  23 100 CALM      29.97S FOG
CAVALIER APRT  CLOUDY    28  27  93 CALM      30.00S FOG
GWINNER        CLOUDY    30  30 100 MISG      30.03R
SHEYENNE NWR     N/A     29  27  92 SW7       29.95S WCI  22
ROLLA          FOG       23  23 100 S7        29.94S VSB 1   WCI  15
 ***** THE ABOVE OBSERVATIONS ARE NON NWS ARE NOT QUALITY
       CONTROLLED AND MAY MIS-REPORT RAIN FOR SNOW...
$$

  *****  WEATHER ACROSS NORTHERN MINNESOTA  *****

CITY           SKY/WX    TMP DP  RH WIND       PRES   REMARKS
FLAG ISLAND    CLOUDY    25  23  93 S10       30.02S FOG     WCI  15
WARROAD        CLOUDY    27  21  80 SE7       30.02F FOG     WCI  19
ROSEAU         CLOUDY    28  23  80 SE6       30.01F HAZE    WCI  22
HALLOCK        CLOUDY    28  27  93 CALM      30.00S FOG
THF RVR FALLS  CLOUDY    28  28 100 S7        30.01F WCI  21
BAUDETTE       CLOUDY    25  23  92 CALM      30.03F FOG
WASKISH        LGT SNOW  27  27 100 CALM      30.04S
CROOKSTON      CLOUDY    28  28 100 S7        30.03S FOG     WCI  21
STEPHEN NDAWN    N/A     28  28 100 SW3         N/A
GREENBUSH NDAW   N/A     27  27 100 SE1         N/A
$$
  *****  WEATHER ACROSS CENTRAL AND WEST MINNESOTA  *****

CITY           SKY/WX    TMP DP  RH WIND       PRES   REMARKS
FOSSTON        CLOUDY    28  28 100 S10       30.02S FOG     WCI  19
BEMIDJI        CLOUDY    27  27  98 SE3       30.02S FOG
PARK RAPIDS    CLOUDY    30  28  92 S10       30.03R FOG     WCI  21
ELBOW LAKE     CLOUDY    30  29  96 S10G17    30.05R FOG     WCI  21
WADENA         CLOUDY    28  27  93 S9        30.05R FOG     WCI  20
DETROIT LAKES  CLOUDY    30  30 100 S8        30.03S FOG     WCI  23
MOORHEAD       CLOUDY    30  30 100 S6        30.05R WCI  24
FERGUS FALLS   CLOUDY    30  28  93 SW9       30.07S FOG     WCI  22
MORRIS MN      CLOUDY    30  28  93 S8        30.06R FOG     WCI  23
STAPLES        CLOUDY    28  28 100 S12       30.06R FOG     WCI  18
$$
  *****  WEATHER ELSEWHERE ACROSS MINNESOTA  *****

CITY           SKY/WX    TMP DP  RH WIND       PRES   REMARKS
DULUTH         LGT SNOW  25  22  88 S7        30.12R FOG     WCI  17
INTRNTL FALLS  LGT SNOW  25  22  88 SE6       30.06S FOG     WCI  18
ELY            LGT SNOW  25  23  93 SE5       30.10S WCI  19
CLOQUET        CLOUDY    25  23  93 CALM      30.11F FOG
WHEATON        CLOUDY    28  27  93 S3        30.07F
BRAINERD       CLOUDY    29  28  96 S10       30.08S FOG     WCI  20
HIBBING        LGT SNOW  26  23  88 SE6       30.09R FOG     WCI  19
ALEXANDRIA     CLOUDY    30  27  88 S13       30.06R FOG     WCI  20
SAINT CLOUD    CLOUDY    32  28  85 S13       30.11S FOG     WCI  22
MINNEAPOLIS    CLOUDY    29  25  85 SE9       30.17S FOG     WCI  20
$$

  *****  WEATHER ACROSS SOUTH DAKOTA  *****

CITY           SKY/WX    TMP DP  RH WIND       PRES   REMARKS
SIOUX FALLS    CLOUDY    31  28  89 S10       30.06S WCI  22
BROOKINGS      NOT AVBL
WATERTOWN      CLOUDY    28  27  96 S15       30.01R FOG     WCI  16
HURON          CLOUDY    26  26 100 S7        30.04R FOG     WCI  18
SISSETON         N/A     30  28  92 SW8       30.03S WCI  22
ABERDEEN       CLOUDY    28  25  88 S9        30.03R FOG     WCI  19
MITCHELL       FOG       27  26  96 S12       30.05S VSB 3/4 WCI  17
PIERRE         FOG       15  11  83 E3        29.96S VSB 1/4
MOBRIDGE       CLEAR     20  17  88 SE7       29.91F WCI  11
RAPID CITY     CLEAR     24  17  74 NW9       29.89F WCI  14
$$

  *****  SOME WEATHER IN NEARBY STATES *****

CITY           SKY/WX    TMP DP  RH WIND       PRES   REMARKS
GLASGOW MT     CLOUDY    29  25  85 SE6       29.82R WCI  23
GREAT FALLS MT PTCLDY    35  23  61 SW15      29.85S
CHEYENNE WY    CLEAR     34  17  50 W12       29.96F
SCOTTSBLUFF NE PTCLDY    16  12  84 N5        29.97S WCI   9
OMAHA NE       FRZ DRZL  31  30  96 SE9       30.14S FOG     WCI  23
DES MOINES IA  FLURRIES  32  29  88 SW8       30.18S WCI  25
DAVENPORT IA   CLOUDY    29  23  78 SE6       30.26S WCI  23
CHICAGO IL     CLOUDY    30  23  75 CALM      30.27S
EAU CLAIRE WI  CLOUDY    28  21  75 S7        30.20S WCI  21
LA CROSSE WI   CLOUDY    30  22  72 S8        30.23S WCI  22
$$

  *****  SOME NATIONAL WEATHER *****

CITY           SKY/WX    TMP DP  RH WIND       PRES   REMARKS
LA GUARDIA NY  CLOUDY    31  21  66 N8        30.22R WCI  23
RALEIGH NC     CLOUDY    36  27  69 E5        30.22F
ATLANTA GA     LGT RAIN  42  39  89 CALM      30.13S FOG
NEW ORLEANS LA CLOUDY    52  49  89 NE12      30.05F
OKLAHOMA CITY  CLOUDY    40  36  86 W3        30.20R FOG
ALBUQUERQUE NM PTCLDY    32  24  72 N6        30.18S
SALT LAKE CITY LGT RAIN  39  35  86 CALM      30.13S
LOS ANGELES CA MOCLDY    54  48  80 NE5       30.17F
BOISE ID       CLOUDY    39  34  82 SE7       30.06F
SEATTLE WA     LGT RAIN  45  39  79 E8        29.84F
$$

*** WEATHER ACROSS MANITOBA...SASKATCHEWAN AND ONTARIO ***
                ***ONTARIO***

CITY           SKY/WX    TMP DP  RH WIND       PRES   REMARKS
GERALDTON      FLURRIES   7   3  85 CALM      30.20S
THUNDER BAY    CLOUDY    23  21  93 CALM      30.19S
SIOUX LOOKOUT  FRZ DRZL  23  21  93 SE6       30.07F WCI  16
TORONTO        PTCLDY    21  18  86 N6        30.25S WCI  14
BIG TROUT LK   CLOUDY    18  18 100 S7        30.12S WCI   8
PICKLE LAKE    NOT AVBL
DRYDEN         CLOUDY    23  23 100 S9        30.05F WCI  13
KENORA           N/A     23  23 100 SE6       30.02F FOG     WCI  16
$$
                *** MANITOBA***

CITY           SKY/WX    TMP DP  RH WIND       PRES   REMARKS
BRANDON        FRZ DRZL  23  23 100 E5        29.96S FOG     WCI  17
DAUPHIN        CLOUDY    21  19  93 E3        29.98S
ISLAND LAKE    NOT AVBL
PILOT MOUND      N/A     23  23 100 SW1         N/A
THE PAS        NOT AVBL
THOMPSON       FLURRIES  16  14  93 SW3       30.02S
WINNIPEG       CLOUDY    27  23  86 SW2       30.02R FOG
LYNN LAKE      CLOUDY    14  12  92 S6        29.93S WCI   5
CHURCHILL      FLURRIES  12   9  85 N12       30.04R WCI  -2
GILLAM         LGT SNOW  10   9  92 S3        30.05S
$$
                ***SASKATCHEWAN***

CITY           SKY/WX    TMP DP  RH WIND       PRES   REMARKS
ESTEVAN        FOG       21  19  93 SE6       29.88S VSB 1/8 WCI  14
KINDERSLEY     CLOUDY    21  21 100 CALM      29.67S
LLOYDMINSTER   CLOUDY    16  14  93 SE7       29.69S WCI   6
PRINCE ALBERT  CLOUDY    16  14  93 SE8       29.86R FOG     WCI   5
REGINA         FOG       18  16  93 SE15      29.83F VSB 3/8 WCI   3
YORKTON        CLOUDY    21  21 100 S7        29.89F WCI  13
N. BATTLEFORD  CLOUDY    18  16  93 SE15G21   29.75F FOG     WCI   3
LA RONGE       CLOUDY    12  10  92 E7        29.87F WCI   2
SASKATOON      CLOUDY    16  14  93 E14       29.78F FOG     WCI   1
SWIFT CURRENT    N/A     34  30  86 SW17      29.68F WCI  23
$$
NOTE: THESE ARE AUTOMATED STATIONS WITH LIMITED QUALITY CONTROL
      "FAIR" INDICATES FEW OR NO CLOUDS BELOW 12,000 FEET WITH NO
      SIGNIFICANT WEATHER AND/OR OBSTRUCTIONS TO VISIBILITY.
      SKY/WX - SKY CONDITION AND SIGNIFICANT WEATHER.
      TMP - AIR TEMPERATURE.    DP   - DEWPOINT TEMPERATURE.
      RH  - RELATIVE HUMIDITY.  PRES - PRESSURE.
      HX  - HEAT INDEX.         WCI  - WIND CHILL INDEX.
$


USA.gov is the U.S. government's official web portal to all federal, state and local government web resources and services.